Other Surface Observations
Issued by NWS

Home | Current Version | Previous Version | Text Only | Print | Product List | Glossary On
Versions: 1 2 3 4 5 6 7 8 9 10 11 12 13 14 15 16 17 18 19 20 21 22 23 24 25 26 27 28 29 30 31 32 33 34 35 36 37 38 39 40 41 42 43 44 45 46 47 48 49 50
000
SXUS52 KTAE 310519
OSOTAE
OSOTAE
North Florida/South Alabama/Southwest Georgia Weather Roundup
National Weather Service Tallahassee Florida
100 AM EDT TUE MAY 31 2016

Note: "fair" indicates few or no clouds below 12,000 feet with no
significant weather and/or obstructions to visibility.

!FLZ017-115-028-034-025-310600
...North Florida...

CITY           SKY/WX    TMP DP  RH WIND       PRES   REMARKS
TALLAHASSEE    CLEAR     73  66  78 W5        29.94F
APALACHICOLA   PTCLDY    77  76  96 W5        29.95F
PERRY          PTCLDY    72  71  95 CALM      29.95F
CROSS CITY       N/A     75  71  87 CALM      29.96S
JACKSONVILLE   PTCLDY    74  66  76 SW7       29.93F
$$

!FLZ112-006-005-002-011-310600
...Florida Panhandle...

CITY           SKY/WX    TMP DP  RH WIND       PRES   REMARKS
MARIANNA       CLEAR     72  67  84 CALM      29.93F
BONIFAY        FAIR      69  66  90 CALM      29.95F
PANAMA CITY NW FAIR      73  72  96 SE3       29.94F FOG
TYNDALL AFB    PTCLDY    79  76  93 W6        29.95F
TYND DRONE APT MOCLDY    79  77  95 W6        29.95F
DE FUNIAK SPR  FAIR      72  69  90 CALM      29.96S
EGLIN AFB      CLEAR     74  70  87 CALM      29.95F
DESTIN         CLEAR     82  77  84 CALM      29.95S HX  90
HURLBURT       CLEAR     77  73  87 W2        29.94S
CRESTVIEW      CLEAR     71  66  84 CALM      29.96F
PENSACOLA      CLEAR     78  73  84 SW3       29.95S
$$

!ALZ063-066-310600
...South Alabama...

CITY           SKY/WX    TMP DP  RH WIND       PRES   REMARKS
DOTHAN         CLEAR     74  67  78 W5        29.97F
OZARK CAIRNS   CLEAR     73  68  84 W2        29.94F
FT RUCKER HELI CLEAR     71  66  84 CALM      29.93F
RUCKER HELI 3  NOT AVBL
RUCKER HELI 2  NOT AVBL
FLORALA APT    CLEAR     72  66  81 CALM      29.96F
ANDALUSIA      CLEAR     78  67  68 W3        29.94F
TROY           CLEAR     72  67  84 CALM      29.96F
EUFALA         FAIR      69  65  86 W3        29.93F
MOBILE         CLOUDY    71  68  90 CALM      29.97S
$$

!GAZ120>161-310600
...Southwest and South Central Georgia...

CITY           SKY/WX    TMP DP  RH WIND       PRES   REMARKS
THOMASVILLE    FAIR      73  68  83 W3        29.95F
BAINBRIDGE     CLEAR     72  68  88 CALM      29.94F
MOODY AFB      CLEAR     73  67  84 S3        29.93S
VALDOSTA       CLEAR     70  68  93 CALM      29.94F
MOULTRIE       CLEAR     75  66  73 CALM      29.95F
BLAKELY        CLEAR     72  68  88 CALM      29.95S
ALBANY         PTCLDY    75  65  70 SW3       29.95F
TIFTON         FAIR      76  68  74 W3        29.94S
FITZGERALD     FAIR      76  66  72 CALM      29.95F
CORDELE        FAIR      74  68  81 SW5       29.94S
AMERICUS       FAIR      70  63  78 CALM      29.95S
HOMERVILLE     FAIR      73  68  83 SW6       29.94F
$$

!GMZ750-755-770-775-310600
...Coastal and Buoy Obs...

STATION/POSITION TIME  TEMP    WIND        PRES    VSBY  WAVE
                       AIR SEA DIR/SP/G                  HT/PER
                 (UTC) (F)     (DEG/KT/KT) (MB)    (MI)  (FT/S)
KEATON BEACH     0500   80     270/  7/  8 1013.8F
CEDAR KEY        0500   80     280/  4/  6 1015.2F
C TOWER          0500   78     270/ 10/ 11 1014.9F
APALACHICOLA BUO 0450   79 80  290/  6/  6 1014.5F         1
PANAMA CITY BUOY 0450   79 81  240/  4/  6 1015.0F         1/ 3
MOBILE BUOY      0500   80 80  250/  6/  8 1014.5S
ORANGE BCH AL BU 0450   82 81              1013.5F         2/ 3
$$




USA.gov is the U.S. government's official web portal to all federal, state and local government web resources and services.